STARLINK-11099, 59716

Orbit data source: Space-Track

STARLINK-11099, 59716 is a payload satellite owned by SpaceX/Seattle (US) in LEO that was launched on Fri, 10 May 2024 UTC via an FALCON 9 launch vehicle from the Air Force Western Test Range (AFWTR). Payload-class satellites include a variety of spacecraft equipped with specific instruments for various scientific and technological missions. These include communications satellites like Starlink; space stations such as the ISS; scientific satellites like the Hubble; Earth observation satellites from companies like Planet Labs, Umbra, and HawkEye 360; GPS; miniature CubeSats for education and research; and military/defense satellites.

Loading next visibility...
Identifier
59716, 2024-088J
Orbit
LEO
Country
Flag of USUS
Related business
Manufacturer
SpaceX/Seattle
Mission
Operational Commercial Communications
Bus & Motor
STARLINK V2MD, Unknown motor
Mass
960 kg wet, ~910 kg dry
Launch date (UTC)
2024-05-10 (2 years ago)
Launch vehicle
FALCON 9
Launch site
Air Force Western Test Range (AFWTR)
Object type
Payload
Rocket body
Debris
Shape & HBR
Box + 2 Pan, 18.1 m
Radar Cross Section
36.964 m², Large (>1 m²)

Expand to show TLE details & history
Last TLE update: 17 hours ago

TLE from 17 hours ago
0 STARLINK-11099
1 59716U 24088J   25346.85076617  .00004838  00000-0  44751-4 0  9998
2 59716  53.1596  34.3226 0001041  86.5612 273.5525 15.69721287 92630
Epoch: 2025-12-12T20:25Z
TLE epoch observation values (Epoch: 2025-12-12T20:25:06.197Z)
Latitude
Longitude
6.26031°
Altitude
360.566 km
Speed
7.694 km/s
True Right ascension
02h 17m 17s
True Declination
0° 00' 00"
Sunlit
Object was in full shadow at epoch
Visualization orbit readout
Latitude
Unknown
Longitude
Unknown
Altitude
Unknown
Speed
Unknown
Apparent Right ascension
Unknown
Apparent Declination
Unknown
Sunlit
N/A
Visualization observer readout
Local Sidereal Time
11:33:56
Azimuth
Unknown
Elevation
Unknown
Doppler factor
Unknown
Orbital elements
Apogee altitude
360.657 km
Perigee altitude
359.254 km
Semi-major axis
6,738.092 km
Eccentricity
0.0001
Inclination
53.1596°
RAAN
34.3226°
Arg. of periapsis
86.5612°
True anomaly
273.54059°
Mean anomaly
273.5525°
Eccentric anomaly
273.54655°
Mean motion
3.92408 °/min
Orbital period
91.74 mins
BSTAR
0.000044751
Loading maneuver chart data...
Computing Atmospheric mass density...
Loading historical data...
Loading historical data...
Loading historical data...
Loading historical data...
Loading historical data...
Loading historical data...
Loading historical data...

Documentation

Showing up to 5 results
|